Tracking 27172 objects as of 2-Apr-2023
HD Live streaming from Space Station
objects crossing your sky now

SL-16 DEB

Track SL-16 DEB now!
10-day predictions


NORAD ID: 22336
Int'l Code: 1992-093Z
Perigee: 835.6 km
Apogee: 1,010.8 km
Inclination: 71.1 °
Period: 103.3 minutes
Semi major axis: 7294 km
RCS: 0.2247 m2 (medium)
Launch date: December 25, 1992
Source: Commonwealth of Independent States (former USSR) (CIS)
Launch site: TYURATAM MISSILE AND SPACE COMPLEX (TTMTR)

Note: This is SATELLITE DEBRIS
Your satellite tracking list
Your tracking list is empty




NASA's NSSDC Master Catalog

Two Line Element Set (TLE):
1 22336U 92093Z   23092.24772700  .00001661  00000-0  12237-2 0  9995
2 22336  71.1327  63.7921 0120131 320.7603  38.4845 13.93593949534421
Source of the keplerian elements: AFSPC